This is the latest recevied weather packets stored in our database for station/object N8BAP. If no packets are shown the sender has not sent any weather packets the latest 10 day(s).
| Time | Temp. | Humidity | Pressure | Rain* | Wind** | Luminosity | Snow |
|---|---|---|---|---|---|---|---|
| 1778067370 | 7.78° C | 96% | 1014.8 hPa | 0 mm | - | 12 W/m² | - |
| 1778067067 | 7.78° C | 96% | 1014.8 hPa | 0 mm | - | 11 W/m² | - |
| 1778066763 | 7.78° C | 96% | 1014.8 hPa | 0 mm | - | 9 W/m² | - |
| 1778066461 | 7.78° C | 96% | 1014.2 hPa | 0 mm | - | 12 W/m² | - |
| 1778066159 | 7.78° C | 96% | 1014 hPa | 0 mm | - | 9 W/m² | - |
| 1778065856 | 7.78° C | 96% | 1014.2 hPa | 0 mm | - | 5 W/m² | - |
| 1778065553 | 7.78° C | 96% | 1014.3 hPa | 0 mm | - | 4 W/m² | - |
| 1778065251 | 7.78° C | 96% | 1013.9 hPa | 0 mm | - | 3 W/m² | - |
| 1778064946 | 7.78° C | 96% | 1013.6 hPa | 0 mm | - | 5 W/m² | - |
| 1778064644 | 7.78° C | 96% | 1013.5 hPa | 0 mm | - | 3 W/m² | - |
| 1778064342 | 7.78° C | 96% | 1013.6 hPa | 0 mm | - | 0 W/m² | - |
| 1778064039 | 7.78° C | 96% | 1013.4 hPa | 0 mm | - | 0 W/m² | - |
| 1778063736 | 7.78° C | 96% | 1013.4 hPa | 0 mm | - | 0 W/m² | - |
| 1778063433 | 7.78° C | 96% | 1013 hPa | 0 mm | - | 0 W/m² | - |
| 1778063132 | 7.78° C | 96% | 1012.8 hPa | 0 mm | - | 0 W/m² | - |
| 1778062829 | 7.78° C | 96% | 1012.9 hPa | 1.27 mm | - | 0 W/m² | - |
| 1778062525 | 7.78° C | 96% | 1013.2 hPa | 1.27 mm | - | 0 W/m² | - |
| 1778062222 | 7.22° C | 96% | 1013.4 hPa | 0 mm | - | 0 W/m² | - |
| 1778061920 | 7.22° C | 96% | 1013.6 hPa | 0 mm | - | 0 W/m² | - |
| 1778061619 | 7.22° C | 96% | 1013.6 hPa | 0 mm | - | 0 W/m² | - |
| 1778061317 | 7.22° C | 96% | 1013.3 hPa | 0 mm | - | 0 W/m² | - |
| 1778061012 | 7.78° C | 96% | 1013.1 hPa | 0 mm | - | 0 W/m² | - |
| 1778060711 | 7.78° C | 96% | 1013.2 hPa | 0 mm | - | 0 W/m² | - |
| 1778060408 | 7.78° C | 96% | 1013 hPa | 0 mm | - | 0 W/m² | - |
| 1778060107 | 7.78° C | 96% | 1012.7 hPa | 0 mm | - | 0 W/m² | - |
* Rain latest hour (hover to see other rain measurements)
** Current wind speed in m/s (hover to see current wind gust speed)